Tracking 29892 objects as of 21-Nov-2024
HD Live streaming from Space Station
objects crossing your sky now

FIREBIRD 4


FIREBIRD 4 is no longer on orbit
FIREBIRD 4 is classified as:


NORAD ID: 40378
Int'l Code: 2015-003C
Perigee: N/A
Apogee: N/A
Inclination: N/A
Period: N/A
Semi major axis: N/A
RCS: N/A
Launch date: January 31, 2015
Source: United States (US)
Launch site: AIR FORCE WESTERN TEST RANGE (AFWTR)
Decay date: 2023-08-02

Uplink (MHz):
Downlink (MHz): 437.219*/437.230
Beacon (MHz):
Mode: 19200bps FSK
Call sign: K7MSU
Status: Reentered

Your satellite tracking list
Your tracking list is empty




NASA's NSSDC Master Catalog

Two Line Element Set (TLE):
1 40378U 15003C   23213.46747684  .09535059  37184-5  78516-3 0  9992
2 40378  99.0570 187.9460 0006954 206.7965 153.2971 16.39803081471850
Source of the keplerian elements: Caltech